Preview of NWS' New Version of Forecast
This preview is not operational and should not be used for support decisions.

Regional Weather Roundup (RWR)

Issued by National Weather Service (NWS)

                            
000
ASUS46 KPQR 192110
RWROR 

OREGON REGIONAL WEATHER ROUNDUP
NATIONAL WEATHER SERVICE PORTLAND OR
200 PM PDT MON AUG 19 2019

NOTE: "FAIR" INDICATES FEW OR NO CLOUDS BELOW 12,000 FEET WITH
NO SIGNIFICANT WEATHER AND/OR OBSTRUCTIONS TO VISIBILITY.

ORZ001>013-192200-
NORTHWEST OREGON

  
CITY           SKY/WX    TMP DP  RH WIND       PRES   REMARKS
ASTORIA        CLOUDY    67  55  65 N7        30.03S                  
TILLAMOOK      SUNNY     73  54  49 NW12      30.01F                  
NEWPORT        SUNNY     66  55  68 NW15      30.03F                  
FLORENCE       FAIR      64  55  72 NW13G18   29.99F                  
PORTLAND       MOSUNNY   75  52  44 W9        29.99F                  
VANCOUVER WA   SUNNY     75  52  44 NW8       29.99F                  
SCAPPOOSE      SUNNY     75  54  47 N8        29.98F                  
HILLSBORO      SUNNY     76  53  44 VRB6      29.98F                  
AURORA         SUNNY     76  52  43 NW6       29.99F                  
MCMINNVILLE    SUNNY     76  53  44 NW8       29.98F                  
SALEM          SUNNY     76  54  46 N9        29.98F                  
CORVALLIS      SUNNY     74  57  55 VRB3      29.99F                  
EUGENE         MOSUNNY   76  56  49 NE8       29.99F                  
CRESWELL       SUNNY     73  55  53 VRB3      29.97F                  
$$

ORZ021-028-192200-
SOUTHWEST OREGON

  
CITY           SKY/WX    TMP DP  RH WIND       PRES   REMARKS
NORTH BEND     SUNNY     69  59  70 NW15      30.00F                  
BROOKINGS      CLOUDY    60  54  80 S6        30.01R                  
ROSEBURG       SUNNY     75  54  47 CALM      29.96F                  
SEXTON SUMMIT  SUNNY     77  49  37 CALM      30.05S                  
GRANTS PASS    FAIR      84  50  30 CALM      29.93F                  
MEDFORD        SUNNY     87  48  25 VRB5      29.89F                  
$$

ORZ014>016-041-192200-
COLUMBIA GORGE

  
CITY           SKY/WX    TMP DP  RH WIND       PRES   REMARKS
TROUTDALE      SUNNY     76  54  46 NW7       29.99F                  
HOOD RIVER     SUNNY     79  52  38 W12G18    29.92S                  
THE DALLES     SUNNY     84  50  30 NW15      29.87F                  
$$

ORZ029>031-041-044-049-050-061>064-502-503-505>511-192200-
EASTERN OREGON

  
CITY           SKY/WX    TMP DP  RH WIND       PRES   REMARKS
MADRAS         SUNNY     82  39  21 N6        29.98F                  
REDMOND        SUNNY     85  38  18 VRB5      29.98S                  
BEND           SUNNY     84  36  17 N6        29.98S                  
PRINEVILLE     SUNNY     82  32  16 N8        29.98F                  
KLAMATH FALLS  SUNNY     82  41  23 CALM      30.04S                  
LAKEVIEW       SUNNY     81  32  17 SE8       30.09S                  
HERMISTON      SUNNY     88  50  27 SW9       29.87F                  
PENDLETON      SUNNY     88  43  20 W13G24    29.90F                  
JOHN DAY       SUNNY     85  40  20 NW6       30.00F                  
MEACHAM        SUNNY     78  43  28 MISG      30.03S                  
LA GRANDE      SUNNY     87  43  21 VRB7      29.94F                  
BAKER CITY     SUNNY     87  44  22 NW10      29.97F                  
BURNS          SUNNY     87  44  22 S8        30.02F                  
ROME             N/A     92  32  12 NW6       29.97F                  
ONTARIO        SUNNY     95  48  20 VRB3      29.88F HX  91           
$$